weather.gov     
National Weather Service

Terminal Aerodrome Forecast
NWS Homepage
This page is being discontinued on March 12, 2014.
The same data is available at this site. Please update your bookmarks.
Thank you, and we apologize for the inconvenience.
Please send an email to SR-SRH.Webmaster@noaa.gov with any concerns.


Current Version
Previous Version:    01  02  03  04  05  06  07  08  09  10  11  12  13  14  
[Printable]
766
FTUS41 KBTV 231120
TAFMPV
TAF
KMPV 231120Z 2312/2412 21008KT P6SM VCSH BKN025
     FM240200 17006KT P6SM OVC035
     FM241000 16010KT 5SM -RA OVC018=


766
FTUS41 KBTV 231120
TAFMPV
TAF
KMPV 231120Z 2312/2412 21008KT P6SM VCSH BKN025
     FM240200 17006KT P6SM OVC035
     FM241000 16010KT 5SM -RA OVC018=




U.S. Dept. of Commerce
NOAA National Weather Service
1325 East West Highway
Silver Spring, MD 20910
E-mail: w-nws.webmaster@noaa.gov
Page last modified: May 16, 2007
NATIONAL WEATHER SERVICE: for Safety, for Work, for Fun - FOR LIFE